• Join FlightAware (Why Join?)
  • Login
  • US Flag GB Flag 
11:13 EDT


 

Airport Tracker/Info


-or-


 

Live Flight TrackerFlight Track Log ✈ SWA1457 ✈ 04-May-2013 ✈ KLAX - KLAS

Flight Track Log - Related Links

Times and Time Zones

All times are in EDT time to prevent confusion due to time zone crossing. See the SWA1457 flight status page for this flight to view local times or setup timezone preferences in your user account.

Time Position Orientation Groundspeed Altitude Reporting Facility
EDT Latitude Longitude Course Direction KTS MPH feet Rate Location/Type
22:57 33.9472 -118.4469 260° West 161 185 1,600  Level Los Angeles Center
22:58 33.9353 -118.5275 260° West 234 269 5,100 3,600 Climbing Los Angeles Center
22:59 33.8783 -118.4806 146° Southeast 289 333 9,800 3,360 Climbing Los Angeles Center
23:00 33.9311 -118.4258 41° Northeast 308 354 12,100 3,540 Climbing Los Angeles Center
23:01 33.9917 -118.3306 53° Northeast 355 409 17,000 4,200 Climbing Los Angeles Center
23:02 34.0506 -118.2247 56° Northeast 374 430 20,700 3,600 Climbing Los Angeles Center
23:03 34.1283 -118.0869 56° Northeast 410 472 24,500 3,600 Climbing Los Angeles Center
23:04 34.1950 -117.9703 55° Northeast 420 483 28,100 2,160 Climbing Los Angeles Center
23:05 34.2619 -117.8506 56° Northeast 428 493 29,000 420 Climbing Los Angeles Center
23:06 34.3283 -117.7311 56° Northeast 428 493 29,000  Level Los Angeles Center
23:07 34.3908 -117.6189 56° Northeast 428 493 29,000  Level Los Angeles Center
23:08 34.4600 -117.4947 56° Northeast 443 510 29,000  Level Los Angeles Center
23:09 34.5383 -117.3500 57° Northeast 508 585 29,000  Level Los Angeles Center
23:10 34.6356 -117.1739 56° Northeast 525 604 29,000  Level Los Angeles Center
23:11 34.7175 -117.0267 56° Northeast 530 610 29,000  Level Los Angeles Center
23:12 34.7972 -116.8778 57° Northeast 530 610 29,000  Level Los Angeles Center
23:13 34.8736 -116.7383 56° Northeast 498 573 29,000 -360 Level Los Angeles Center
23:14 34.9486 -116.6011 56° Northeast 490 564 28,300 -1,620 Descending Los Angeles Center
23:15 35.0361 -116.4833 48° Northeast 470 541 25,800 -1,800 Descending Los Angeles Center
23:16 35.1244 -116.3728 46° Northeast 461 531 24,700 -1,020 Descending Los Angeles Center
23:17 35.2108 -116.2653 45° Northeast 449 517 23,800 -1,080 Descending Los Angeles Center
23:18 35.3108 -116.1372 46° Northeast 435 501 22,600 -1,380 Descending Los Angeles Center
23:19 35.3936 -116.0331 46° Northeast 429 494 21,000 -1,680 Descending Los Angeles Center
23:20 35.4108 -116.0100 47° Northeast 424 488 20,400 -2,280 Descending Los Angeles Center
23:20 35.4722 -115.9328 46° Northeast 414 476 18,700 -2,700 Descending Los Angeles Center
23:21 35.5067 -115.8928 43° Northeast 412 474 17,400 -2,460 Descending Los Angeles Center
23:21 35.5522 -115.8344 46° Northeast 397 457 16,200 -2,220 Descending Los Angeles Center
23:22 35.6064 -115.7633 47° Northeast 372 428 14,300 -1,860 Descending Los Angeles Center
23:23 35.6694 -115.6850 45° Northeast 352 405 13,100 -1,080 Descending Los Angeles Center
23:23 35.6883 -115.6617 45° Northeast 349 402 13,000  Descending Los Angeles Center
23:24 35.7306 -115.6072 46° Northeast 319 367 13,100 60 Climbing Los Angeles Center
23:24 35.7564 -115.5772 43° Northeast 319 367 13,100  Level Los Angeles Center
23:25 35.8067 -115.5403 31° Northeast 318 366 13,100  Level Los Angeles Center
23:25 35.8239 -115.5269 32° Northeast 314 361 13,100  Level Los Angeles Center
23:26 35.8850 -115.4831 30° Northeast 324 373 13,100  Level Los Angeles Center
23:26 35.9006 -115.4697 35° Northeast 321 369 13,100 -1,140 Level Los Angeles Center
23:27 35.9614 -115.4264 30° Northeast 321 369 12,000 -1,500 Descending Los Angeles Center
23:27 35.9781 -115.4144 30° Northeast 323 372 11,600 -1,140 Descending Los Angeles Center
23:28 36.0181 -115.3786 36° Northeast 315 362 11,100 -840 Descending Los Angeles Center
23:29 36.0275 -115.3214 78° East 301 346 10,800 -840 Descending Los Angeles Center
23:29 36.0233 -115.2839 98° East 277 319 10,300 -1,500 Descending Los Angeles Center
23:30 36.0206 -115.2272 93° East 281 323 9,300 -1,200 Descending Los Angeles Center
23:30 36.0169 -115.1744 95° East 275 316 9,000 -540 Descending Los Angeles Center
23:31 36.0142 -115.1333 95° East 278 320 8,800 -1,020 Descending Los Angeles Center
23:31 36.0097 -115.0917 97° East 270 311 8,100 -1,320 Descending Los Angeles Center
23:32 36.0075 -115.0428 93° East 270 311 7,500 -1,200 Descending Los Angeles Center
23:32 36.0050 -115.0003 94° East 267 307 6,900 -1,320 Descending Los Angeles Center
23:33 36.0056 -114.9528 89° East 266 306 6,200 -1,620 Descending Los Angeles Center
23:33 36.0436 -114.9208 34° Northeast 275 316 5,100 -1,200 Descending Los Angeles Center
23:34 36.0678 -114.9306 342° North 264 304 5,000 -660 Descending Los Angeles Center
23:34 36.0719 -114.9806 276° West 185 213 4,300 -900 Descending Los Angeles Center
23:35 36.0750 -114.9917 289° West 213 245 4,100 -900 Descending Los Angeles Center
23:35 36.0733 -115.0361 267° West 170 196 3,500 -840 Descending Los Angeles Center
23:36 36.0739 -115.0483 273° West 186 214 3,300 -720 Descending Los Angeles Center
23:36 36.0733 -115.0867 269° West 139 160 2,700 -720 Descending Los Angeles Center
23:37 36.0733 -115.0958 270° West 162 186 2,600 -480 Descending Los Angeles Center
23:38 36.0742 -115.1422 271° West 147 169 2,100 -540 Descending Los Angeles Center